Location: Huisseau
(47.5933°N, 1.4533°E)
Time: 18:07:08
(UTC+00:00)

CENTAUR R/B - Pass Details

Date: 25 November 2025
Orbit: 633 x 1547 km, 63.4° (Epoch: 06 December)

Event Time Altitude Azimuth Distance (km) Brightness Sun altitude
Rises 18:27:15 0° 198° (SSW) 3,174 5.5 -22.9°
Reaches altitude 10° 18:29:28 10° 193° (SSW) 2,346 4.7 -23.3°
Enters shadow 18:34:36 49° 121° (ESE) 1,156 2.5 -24.1°
